sat.trackr.live / text

‹ back to catalog

ONEWEB-0283

NORAD 49001 · 2021-060AL

PAYLOAD ACTIVE UNKNOWN

§ Identity

Operator
Country
UK
Launch date
2021-07-01
Launch site
VOSTO
Launch vehicle
Mass (kg)
RCS (m²)

Purposes: comms

External: N2YO · Heavens-Above · Gunter

§ Orbital elements

Epoch: 2026-09-12T22:30:28.771200Z

Period
109.37 min
Inclination
87.9141°
Eccentricity
0.0002168
Mean motion
13.16593344 rev/d
Perigee alt
1,196.1 km
Apogee alt
1,199.4 km
Semi-major
7,575.9 km
B*
1.1347e-4
RAAN
211.3539°
Arg perigee
76.2259°
Mean anomaly
283.9113°
Rev number
25,116

§ Raw data

ONEWEB-02831 49001U 21060AL  26255.93783300  .00000056  00000+0  11347-3 0  99952 49001  87.9141 211.3539 0002168  76.2259 283.9113 13.16593344251169

JSON: /api/v1/satellites/49001 · /tle

For live sub-satellite position, see the globe view (requires WebGL).

§ Visibility from observer

Set your observer location to see the next 7 days of passes ≥ 10°. The values pass through the URL so the page stays shareable.

No JS? Fill the form by hand. The geolocation button needs JavaScript.